Weather History for CYDA - October, 2013

Change the Weather History Date:

Sunday, October 27, 2013

  Actual Average Record
Temperature  
Mean Temperature 25 °F -  
Max Temperature 31 °F 19 °F 39 °F (2002)
Min Temperature 18 °F 9 °F -32 °F (1996)
Degree Days  
Heating Degree Days 40    
Moisture  
Dew Point 22 °F    
Average Humidity 80    
Maximum Humidity 93    
Minimum Humidity 62    
Precipitation  
Precipitation 0.04 in - - ()
Sea Level Pressure  
Sea Level Pressure 30.48 in    
Wind  
Wind Speed 4 mph ()    
Max Wind Speed 9 mph    
Max Gust Speed 17 mph    
Visibility 19.6 miles    
Events Snow    
Averages and records for this station are not official NWS values.
T = Trace of Precipitation, MM = Missing Value Source: Averaged Metar Reports

Daily Weather History Graph

Daily Weather History Graph

Search for Another Location

Airport or City:

Trip Planner

Search our weather history database for the weather conditions in past years. The results will help you decide how hot, cold, wet, or windy it might be!

Date:

Astronomy

Oct. 27, 2013 Rise Set
Actual Time 9:44 AM PDT 6:14 PM PDT
Civil Twilight 8:53 AM PDT 7:06 PM PDT
Nautical Twilight 7:57 AM PDT 8:02 PM PDT
Astronomical Twilight 7:01 AM PDT 8:57 PM PDT
Moon 12:32 AM PDT (10/27) 4:32 PM PDT (10/27)
Length of Visible Light 10h 13m
Length of Day
8h 30m
Last Quarter, 42% of the Moon is Illuminated
Oct 27
Last Quarter
Nov 3
New
Nov 9
First Quarter
Nov 17
Full
Nov 25
Last Quarter

Hourly Weather History & Observations

Time (PDT) Temp. Windchill Dew Point Humidity Pressure Visibility Wind Dir Wind Speed Gust Speed Precip Events Conditions
2:00 AM 18 °F - 16 °F 87% 30.70 in - East 4.6 mph - -  
5:00 AM 22 °F - 19 °F 83% 30.65 in - East 3.5 mph - -  
7:00 AM 24.8 °F 17.9 °F 23.0 °F 93% 30.61 in 20.0 mi North 5.8 mph - N/A Snow Light Snow
8:00 AM 26 °F - 21 °F 75% 30.60 in - NE 4.6 mph - -  
8:00 AM 24.8 °F 19.1 °F 21.2 °F 86% 30.60 in 20.0 mi NE 4.6 mph - N/A Snow Light Snow
8:34 AM 26.6 °F 17.5 °F 21.2 °F 80% 30.60 in 20.0 mi NE 9.2 mph - N/A   Overcast
9:00 AM 26.6 °F 18.2 °F 21.2 °F 80% 30.59 in 20.0 mi NNE 8.1 mph 17.3 mph N/A   Overcast
10:00 AM 24.8 °F 17.9 °F 21.2 °F 86% 30.53 in 20.0 mi North 5.8 mph - N/A   Overcast
11:00 AM 24.8 °F 19.1 °F 19.4 °F 80% 30.52 in 20.0 mi ESE 4.6 mph - N/A   Overcast
12:00 PM 26.6 °F - 21.2 °F 80% 30.48 in 20.0 mi Calm Calm - N/A   Overcast
1:00 PM 26.6 °F 22.6 °F 21.2 °F 80% 30.47 in 20.0 mi ENE 3.5 mph - N/A   Overcast
2:00 PM 28 °F - 22 °F 68% 30.44 in - ENE 2.3 mph - -  
2:00 PM 28.4 °F 24.6 °F 23.0 °F 80% 30.44 in 20.0 mi East 3.5 mph - N/A   Overcast
2:35 PM 28.4 °F - 23.0 °F 80% 30.43 in 15.0 mi WSW 2.3 mph - N/A Snow Light Snow
3:00 PM 28.4 °F 22.2 °F 23.0 °F 80% 30.40 in 20.0 mi North 5.8 mph - N/A Snow Light Snow
4:00 PM 30.2 °F 22.6 °F 24.8 °F 80% 30.37 in 20.0 mi NNE 8.1 mph - N/A Snow Light Snow
5:00 PM 32 °F - 24 °F 62% 30.32 in - NE 5.8 mph - -  
8:00 PM 30 °F - 26 °F 80% 30.24 in - North 2.3 mph - -  
11:00 PM 29 °F - 27 °F 88% 30.14 in - North 3.5 mph - -